Kabul, Afghanistan

9:31 PM +0430 on December 15, 2017 (GMT +0430)
Kabul

Weather History for OAKB - November, 2012

Change the Weather History Date:

Saturday, November 24, 2012

  Actual Average Record
Temperature  
Mean Temperature 44 °F -  
Max Temperature 53 °F 49 °F - ()
Min Temperature 33 °F 25 °F - ()
Degree Days  
Heating Degree Days 21    
Moisture  
Dew Point 9 °F    
Average Humidity 29    
Maximum Humidity 81    
Minimum Humidity 10    
Precipitation  
Precipitation 0.00 in 0.03 in - ()
Sea Level Pressure  
Sea Level Pressure 30.15 in    
Wind  
Wind Speed 5 mph ()    
Max Wind Speed 15 mph    
Max Gust Speed -    
Visibility 5.1 miles    
Events      
T = Trace of Precipitation, MM = Missing Value Source: Averaged Metar Reports

Daily Weather History Graph

Daily Weather History Graph

Search for Another Location

Airport or City:

Trip Planner

Search our weather history database for the weather conditions in past years. The results will help you decide how hot, cold, wet, or windy it might be!

Date:

Astronomy

Nov. 24, 2012 Rise Set
Actual Time 6:35 AM +0430 4:44 PM +0430
Civil Twilight 6:08 AM +0430 5:11 PM +0430
Nautical Twilight 5:37 AM +0430 5:42 PM +0430
Astronomical Twilight 5:07 AM +0430 6:12 PM +0430
Moon 2:08 PM +0430 (11/24) 2:35 AM +0430 (11/24)
Length of Visible Light 11h 03m
Length of Day
10h 08m
Waxing Gibbous, 84% of the Moon is Illuminated
Nov 24
Waxing Gibbous
Nov 28
Full
Dec 6
Last Quarter
Dec 13
New
Dec 20
First Quarter

Hourly Weather History & Observations

Time (+0430) Temp. Windchill Dew Point Humidity Pressure Visibility Wind Dir Wind Speed Gust Speed Precip Events Conditions
12:20 AM 39.2 °F - 33.8 °F 81% 30.09 in 5.0 mi Variable 2.3 mph - N/A   Unknown
1:20 AM 41.0 °F 36.4 °F 21.2 °F 45% 30.09 in - NNW 6.9 mph - N/A   Clear
2:20 AM 37.4 °F 33.8 °F 28.4 °F 70% 30.09 in - NNE 4.6 mph - N/A   Clear
3:20 AM 41.0 °F 39.0 °F 19.4 °F 42% 30.09 in 6.2 mi SW 3.5 mph - N/A   Mostly Cloudy
4:20 AM 42.8 °F - 15.8 °F 34% 30.09 in 6.2 mi Variable 2.3 mph - N/A   Mostly Cloudy
5:20 AM 42.8 °F 35.4 °F 14.0 °F 31% 30.09 in 6.2 mi NNE 15.0 mph - N/A   Mostly Cloudy
6:20 AM 39.2 °F 33.0 °F 12.2 °F 33% 30.12 in 6.2 mi North 9.2 mph - N/A   Partly Cloudy
7:20 AM 39.2 °F 34.2 °F 10.4 °F 31% 30.15 in 6.2 mi North 6.9 mph - N/A   Partly Cloudy
8:20 AM 42.8 °F 38.0 °F 8.6 °F 25% 30.18 in 6.2 mi NNE 8.1 mph - N/A   Partly Cloudy
9:20 AM 46.4 °F 43.5 °F 6.8 °F 20% 30.18 in 6.2 mi SSE 5.8 mph - N/A   Partly Cloudy
10:20 AM 50.0 °F - -0.4 °F 13% 30.18 in 6.2 mi West 9.2 mph - N/A   Partly Cloudy
11:20 AM 50.0 °F - -4.0 °F 11% 30.18 in 6.2 mi NNE 11.5 mph - N/A   Partly Cloudy
12:20 PM 51.8 °F - -4.0 °F 10% 30.12 in 6.2 mi NW 5.8 mph - N/A   Partly Cloudy
1:20 PM 51.8 °F - -2.2 °F 11% 30.15 in - West 4.6 mph - N/A   Clear
2:20 PM 53.6 °F - -2.2 °F 10% 30.15 in - NNW 5.8 mph - N/A   Clear
3:20 PM 51.8 °F - -2.2 °F 11% 30.15 in - NE 3.5 mph - N/A   Clear
4:20 PM 48.2 °F - -4.0 °F 11% 30.15 in - NE 4.6 mph - N/A   Clear
5:20 PM 46.4 °F 43.5 °F 5.0 °F 18% 30.18 in 4.3 mi South 5.8 mph - N/A   Unknown
6:20 PM 44.6 °F 42.2 °F 5.0 °F 20% 30.18 in 3.7 mi South 4.6 mph - N/A   Unknown
7:20 PM 39.2 °F - 5.0 °F 24% 30.21 in 3.7 mi NW 2.3 mph - N/A   Unknown
8:20 PM 39.2 °F - 8.6 °F 28% 30.21 in 3.1 mi Variable 1.2 mph - N/A   Haze
9:20 PM 35.6 °F 32.8 °F 12.2 °F 38% 30.21 in 2.5 mi SE 3.5 mph - N/A   Haze
10:20 PM 35.6 °F 31.7 °F 12.2 °F 38% 30.21 in 3.1 mi NE 4.6 mph - N/A   Haze
11:20 PM 33.8 °F - 12.2 °F 41% 30.21 in 3.7 mi Variable 2.3 mph - N/A   Unknown